Regional Weather Roundup
Issued by NWS

Home | Current Version | Previous Version | Text Only | Print | Product List | Glossary On
Versions: 1 2 3 4 5 6 7 8 9 10 11 12 13 14 15 16 17 18 19 20 21 22 23 24 25 26 27 28 29 30 31 32 33 34 35 36 37 38 39 40 41 42 43 44 45 46 47 48 49 50
000
ASUS43 KDTX 220601
RWRMI
MICHIGAN HOURLY REGIONAL WEATHER ROUNDUP
NATIONAL WEATHER SERVICE DETROIT/PONTIAC MI
100 AM EST SAT NOV 22 2014

NOTE: "FAIR" INDICATES FEW OR NO CLOUDS BELOW 12,000 FEET WITH NO
SIGNIFICANT WEATHER AND/OR OBSTRUCTION TO VISIBILITY.

MIZ047>049-052>055-059>063-066>070-074>076-081>083-220700-
SOUTHEAST LOWER MICHIGAN

CITY           SKY/WX    TMP DP  RH WIND       PRES   REMARKS
ADRIAN         MOCLDY    20  12  71 S8        30.31F WCI  10
6HR MIN TEMP:  16; 6HR MAX TEMP:  21;

ALMA           MOCLDY    21  14  72 S8G16     30.21F WCI  12
ANN ARBOR      PTCLDY    19  10  68 S7        30.29F WCI  10
BAD AXE        CLOUDY    24  14  64 SW14      30.22F WCI  12
6HR MIN TEMP:  19; 6HR MAX TEMP:  24;

DETROIT CITY   PTCLDY    26  13  57 SW10      30.32F WCI  16
6HR MIN TEMP:  23; 6HR MAX TEMP:  26;

DETROIT        PTCLDY    20  12  71 S9        30.33F WCI   9
6HR MIN TEMP:  19; 6HR MAX TEMP:  22;

FLINT          CLEAR     25  11  55 S12       30.25F WCI  14
6HR MIN TEMP:  22; 6HR MAX TEMP:  25;

GROSSE ILE     PTCLDY    25  16  68 S15       30.32F WCI  12
HILLSDALE      MOCLDY    22  11  61 S9        30.25F WCI  12
HOWELL         PTCLDY    21  12  68 S9        30.24F WCI  10
6HR MIN TEMP:  19; 6HR MAX TEMP:  22;


CITY           SKY/WX    TMP DP  RH WIND       PRES   REMARKS
JACKSON        CLOUDY    25  11  55 S13       30.25F WCI  14
6HR MIN TEMP:  20; 6HR MAX TEMP:  25;

LAMBERTVILLE   MOCLDY    23  12  63 S6        30.32F WCI  16
LANSING        PTCLDY    23  12  62 S12       30.23F WCI  12
6HR MIN TEMP:  20; 6HR MAX TEMP:  23;

LAPEER         FAIR      22  11  63 SW9       30.26F WCI  12
MASON          MOCLDY    24  13  65 S7        30.23F WCI  16
MONROE         PTCLDY    21  12  68 S8        30.31F WCI  12
MT. CLEMENS    PTCLDY    18  13  79 S6        30.29F WCI  10
6HR MIN TEMP:  17; 6HR MAX TEMP:  20;

PONTIAC        PTCLDY    20  10  65 S10       30.26F WCI   9
6HR MIN TEMP:  20; 6HR MAX TEMP:  22;

PORT HOPE        N/A     25  11  55 SW12G22   30.20F WCI  14
6HR MIN TEMP:  22; 6HR MAX TEMP:  25;

PORT HURON     PTCLDY    25  16  68 SW8       30.30F WCI  16
TRI CITIES     PTCLDY    24  12  60 S12       30.22F WCI  13
6HR MIN TEMP:  24; 6HR MAX TEMP:  26;

SAGINAW HB     PTCLDY    23  14  68 S13G18    30.23F WCI  11
$$
MIZ043>046-050>051-056>058-064>065-071>073-077>080-220700-
SOUTHWEST LOWER MICHIGAN

CITY           SKY/WX    TMP DP  RH WIND       PRES   REMARKS
BATTLE CREEK   CLOUDY    26  13  57 S16       30.22F WCI  14
6HR MIN TEMP:  22; 6HR MAX TEMP:  26;

BENTON HARBOR  CLOUDY    30  13  49 S10       30.21F WCI  21
6HR MIN TEMP:  25; 6HR MAX TEMP:  30;

BIG RAPIDS     CLOUDY    26  15  63 S5        30.14F WCI  20
6HR MIN TEMP:  25; 6HR MAX TEMP:  26;

COLDWATER      MOCLDY    28  14  56 S8        30.25F WCI  19
6HR MIN TEMP:  21; 6HR MAX TEMP:  28;

FREMONT        CLOUDY    25  13  59 S7        30.16F WCI  17
HOLLAND        CLOUDY    29  16  58 S14       30.18F WCI  18
6HR MIN TEMP:  24; 6HR MAX TEMP:  29;

GRAND RAPIDS   CLOUDY    26  14  60 S13       30.20F WCI  15
6HR MIN TEMP:  20; 6HR MAX TEMP:  26;

IONIA          MOCLDY    24  15  67 S9        30.19F WCI  15
KALAMAZOO      CLOUDY    26  14  60 S15       30.22F WCI  14
6HR MIN TEMP:  22; 6HR MAX TEMP:  26;

LUDINGTON      CLOUDY    29  22  75 SE8       30.10F WCI  21
6HR MIN TEMP:  29; 6HR MAX TEMP:  34;

MARSHALL       CLOUDY    23  12  62 S8        30.23F WCI  14
MOUNT PLEASANT MOCLDY    24  13  64 S7        30.18F WCI  15
6HR MIN TEMP:  23; 6HR MAX TEMP:  26;

MUSKEGON       CLOUDY    28  15  58 S9        30.17F WCI  19
6HR MIN TEMP:  25; 6HR MAX TEMP:  28;

SOUTH HAVEN    CLOUDY    31  15  53 S8        30.20F WCI  23
$$
MIZ016>042-220700-
NORTHERN LOWER MICHIGAN

CITY           SKY/WX    TMP DP  RH WIND       PRES   REMARKS
ALPENA         MOCLDY    26  15  63 SW12      30.08F WCI  16
6HR MIN TEMP:  24; 6HR MAX TEMP:  26;

BEAVER ISLAND  MOCLDY    36  30  80 S18G25    29.97F WCI  25
6HR MIN TEMP:  32; 6HR MAX TEMP:  37;

BELLAIRE       CLOUDY    30  20  67 S12G18    30.07F WCI  20
6HR MIN TEMP:  26; 6HR MAX TEMP:  30;

CADILLAC       CLOUDY    24  17  75 S13       30.08F WCI  13
CHARLEVOIX     MOCLDY    31  23  72 S15G28    30.04F WCI  20
6HR MIN TEMP:  27; 6HR MAX TEMP:  31;

FRANKFORT      CLOUDY    33  26  75 S13G25    30.06F WCI  24
GAYLORD        MOCLDY    24  16  71 SW20G30   30.03F HAZE    WCI  10
6HR MIN TEMP:  21; 6HR MAX TEMP:  24;

GRAYLING       MOCLDY    26  15  64 S10G18    30.09F WCI  16
6HR MIN TEMP:  23; 6HR MAX TEMP:  26;

HARBOR SPRINGS MOCLDY    30  21  70 SW12G24   30.02F WCI  20
HOUGHTON LAKE  MOCLDY    25  12  58 S12G21    30.11F WCI  14
6HR MIN TEMP:  23; 6HR MAX TEMP:  25;

MANISTEE       MOCLDY    28  18  64 S9        30.09F WCI  20
OSCODA         MOCLDY    26  15  63 SW20      30.15F WCI  12
PELLSTON       MOCLDY    30  20  66 SW9G26    30.01F WCI  22
6HR MIN TEMP:  25; 6HR MAX TEMP:  30;

ROGERS CITY    CLOUDY    27  19  72 SW17      30.03F WCI  14
TRAVERSE CITY  CLOUDY    30  19  63 S12G17    30.05F WCI  20
6HR MIN TEMP:  26; 6HR MAX TEMP:  30;

$$
MIZ007>008-015-220700-
EASTERN UPPER MICHIGAN

CITY           SKY/WX    TMP DP  RH WIND       PRES   REMARKS
KINROSS        CLOUDY    30  28  93 S9G20     29.94F WCI  22
6HR MIN TEMP:  27; 6HR MAX TEMP:  30;

MACKINAC ISLAN MOCLDY    31  23  73 SW17G26   29.97F WCI  19
6HR MIN TEMP:  27; 6HR MAX TEMP:  31;

NEWBERRY       PTCLDY    32  27  80 SW26G36   29.89F HAZE    WCI  18
S. S. MARIE    CLOUDY    29  24  82 S6        29.96S WCI  23
6HR MIN TEMP:  25; 6HR MAX TEMP:  29;

MUNISING         N/A     30  10  43 S20G29    29.85F WCI  17
6HR MIN TEMP:  27; 6HR MAX TEMP:  30;

$$
MIZ004>006-011>014-085-220700-
CENTRAL UPPER MICHIGAN

CITY           SKY/WX    TMP DP  RH WIND       PRES   REMARKS
MANISTIQUE     CLOUDY    33  21  61 SW20G29   29.93F WCI  21
ESCANABA       CLOUDY    30  12  47 SW14G21   29.94F WCI  20
6HR MIN TEMP:  25; 6HR MAX TEMP:  30;

MENOMINEE      CLOUDY    30  14  51 SW18G26   29.96F WCI  18
6HR MIN TEMP:  28; 6HR MAX TEMP:  30;

SAWYER-GWINN   CLOUDY    24  14  64 S15G28    29.82F WCI  12
6HR MIN TEMP:  19; 6HR MAX TEMP:  25;

$$
MIZ001>003-009>011-084-220700-
WESTERN UPPER MICHIGAN

CITY           SKY/WX    TMP DP  RH WIND       PRES   REMARKS
IRON MOUNTAIN  CLOUDY    27  14  58 SW13G21   29.88F WCI  16
6HR MIN TEMP:  20; 6HR MAX TEMP:  27;

HOUGHTON       CLOUDY    31  18  58 SW13G29   29.73S WCI  21
6HR MIN TEMP:  24; 6HR MAX TEMP:  31;

COPPER HARBOR    N/A     30  17  58 VRB7      29.74R WCI  23
6HR MIN TEMP:  28; 6HR MAX TEMP:  30;

IRONWOOD       CLOUDY    30  23  74 SW20G28   29.76S WCI  18
6HR MIN TEMP:  27; 6HR MAX TEMP:  30;

$$

ABBREVIATIONS USED IN REMARKS
   TC - TEMPERATURE IN CELSIUS
  WCI - WIND CHILL INDEX
   HX - HEAT INDEX
  VSB - VISIBILITY




USA.gov is the U.S. government's official web portal to all federal, state and local government web resources and services.